Home   Weather   Périgueux   Past weeks

Flag for France Past Weather in Périgueux, Aquitaine, France — Yesterday and Last 2 Weeks

Now
70 °F

Sunny.


Feels Like: 70 °F
Forecast: 52 / 86 °F
Wind: 3 mph from North

Location: Bergerac Airport

Current Time: Aug 20, 2017 at 12:00:50 pm

Latest Report: Aug 20, 2017 at 11:30 am


Visibility: 10 mi

Pressure: 30.30 "Hg

Humidity: 53%

Dew Point: 52 °F

Location of PérigueuxLocation

Past Weather in Périgueux — Graph

°F

Périgueux Temperature Yesterday

Maximum temperature yesterday: 75 °F (at 5:00 pm)
Minimum temperature yesterday: 52 °F (at 11:30 pm)
Average temperature yesterday: 64 °F

High & Low Weather Summary for the Past Weeks

 TemperatureHumidityPressure
High93 °F (Aug 14, 4:00 pm)100% (Aug 7, 5:30 am)30.30 "Hg (Aug 7, 5:30 am)
Low45 °F (Aug 12, 6:30 am)28% (Aug 14, 5:30 pm)29.86 "Hg (Aug 7, 7:30 pm)
Average66 °F74%30.12 "Hg
* Reported Aug 5 10:00 am — Aug 20 10:30 am, Périgueux. Weather by CustomWeather, © 2017

Note: Actual official high and low records may vary slightly from our data, if they occured in-between our weather recording intervals... More about our weather records

Advertising

Périgueux Weather History for the Previous 24 Hours

Scroll right to see more
 ConditionsComfort  
Time TempWeatherWind HumidityBarometerVisibility
10:30 am
Sun, Aug 20
64 °FSunny.2 mph64%30.30 "Hg10 mi
10:00 am61 °FSunny.No wind77%30.30 "Hg10 mi
9:30 am57 °FSunny.No wind82%30.30 "Hg10 mi
9:00 am54 °FSunny.No wind94%30.30 "Hg10 mi
8:30 am50 °FSunny.No wind94%30.30 "Hg10 mi
8:00 am45 °FSunny.No wind100%30.30 "Hg10 mi
7:30 am45 °FSunny.No wind93%30.27 "Hg10 mi
7:00 am45 °FClear.No wind93%30.27 "Hg10 mi
6:30 am45 °FClear.2 mph100%30.27 "Hg10 mi
6:00 am45 °FClear.2 mph100%30.27 "Hg10 mi
5:30 am45 °FClear.1 mph93%30.27 "Hg10 mi
5:00 am46 °FClear.2 mph93%30.27 "Hg10 mi
4:30 am46 °FClear.No wind100%30.27 "Hg10 mi
4:00 am46 °FClear.No wind100%30.24 "Hg10 mi
3:30 am48 °FClear.2 mph87%30.24 "Hg10 mi
3:00 am50 °FClear.2 mph88%30.27 "Hg10 mi
2:00 am52 °FPassing clouds.3 mph88%30.27 "HgN/A
1:30 am52 °FClear.5 mph88%30.27 "Hg10 mi
1:00 am50 °FClear.2 mph88%30.27 "Hg10 mi
12:30 am50 °FClear.5 mph88%30.27 "Hg6 mi
12:00 am50 °FClear.3 mph88%30.27 "Hg10 mi
11:30 pm
Sat, Aug 19
52 °FClear.No wind88%30.24 "Hg10 mi
11:00 pm54 °FClear.No wind82%30.27 "Hg10 mi
10:30 pm55 °FClear.No wind77%30.24 "Hg10 mi
10:00 pm59 °FHaze.1 mph68%30.24 "Hg3 mi
9:30 pm64 °FClear.2 mph52%30.24 "Hg10 mi
9:00 pm66 °FClear.3 mph49%30.21 "Hg10 mi
8:30 pm68 °FPassing clouds.7 mph46%30.21 "HgN/A
8:00 pm70 °FSunny.8 mph43%30.21 "Hg10 mi
7:30 pm72 °FSunny.8 mph44%30.21 "Hg10 mi
7:00 pm72 °FPassing clouds.8 mph41%30.21 "HgN/A
6:30 pm73 °FSunny.9 mph38%30.21 "Hg10 mi
6:00 pm73 °FPassing clouds.8 mph38%30.21 "HgN/A
5:30 pm73 °FSunny.10 mph38%30.21 "Hg10 mi
5:00 pm75 °FPassing clouds.9 mph39%30.21 "HgN/A
4:30 pm73 °FPassing clouds.10 mph41%30.21 "HgN/A
4:00 pm73 °FPassing clouds.9 mph38%30.21 "HgN/A
3:30 pm73 °FPassing clouds.9 mph38%30.21 "HgN/A
3:00 pm72 °FSunny.12 mph41%30.21 "Hg10 mi
2:30 pm72 °FPassing clouds.10 mph41%30.24 "HgN/A
2:00 pm72 °FSunny.6 mph44%30.24 "Hg10 mi
1:30 pm70 °FPassing clouds.9 mph46%30.24 "HgN/A
1:00 pm70 °FPassing clouds.7 mph46%30.24 "HgN/A
12:30 pm68 °FPassing clouds.6 mph53%30.24 "HgN/A
12:00 pm68 °FSunny.6 mph53%30.24 "Hg10 mi
Weather by CustomWeather, © 2017

See weather overviewHow to use our weather pages